SL-4 R/B (39679 NORAD) Tracking and Keplerian Element Data

This shows tracking and keplerian element data for the satellite.

Feedback or suggestion? Click here.




ElementValue
Catalog39679
NameSL-4 R/B
Epoch Orbit42644
Epoch Day16.09473815
Epoch Year2022
RAAN304.8551
Inclination51.6161
Eccentricity0.0168698
Argument of Perigee148.8324
Mean Anonmoly212.2784
Mean Motion15.07531284
Decay Rate1.338E-05
L11 39679U 14021B 22016.09473815 .00001338 00000+0 80544-4 0 9999
L22 39679 51.6161 304.8551 0168698 148.8324 212.2784 15.07531284426442

Live tracking and technical data element details for SL-4 R/B (NORAD 39679). SL-4 R/B can be tracked NOW for your location showing map with azimuth and elevation plus other details from your city location.

Track the satellite on the map from your city or location and see movement details for azimuth, elevation, latitude, longitude, range, height, and movement on the map or in text.







IsCatalogInMostPopularTable: catalog: 39679, numindb: 162
Update: records affected: 1



GetName: 39679 SL-4 R/B

Hit Count: updated at: Mon, 17 Jan 2022 02:15:13 GMT